Find Starlink 4395

NORAD ID: 53199 Int'l Des: 2022-084 Owner: SPXS Country: US Constellation: starlink operational
LEOCIRCULARRETROGRADESSO

当前视图

正在加载3D地球...

About Starlink 4395

Starlink 4395 (NORAD 53199) is a starlink constellation satellite (v1.5) launched Jul 22, 2022 by SPXS of US. It operates in LEO, CIRCULAR, RETROGRADE, SSO orbit with a mass of 297.00 kg.

即将过境

Passes for default location (London). Set your location on the main map for personalized predictions.

高度历史

Loading altitude history...

两行轨道根数

1 53199U 22084L 26209.15271522 .00000031 00000-0 60182-5 0 9993
2 53199 97.2840 267.0542 0001417 118.2260 241.9111 15.05652520220518
Epoch: Jul 28, 2026 • Age: 14 hours

当前状态

高度 569.4 km
远地点 / 近地点 N/A
速度 7.57 km/s
星下点 -48.87°S, 62.55°E
发射日期 Jul 22, 2022
运行时间 4 years
类型 internet

技术详情

分类 Payload
质量 297.00 kg
干质量 275.00 kg
总质量 297.00 kg
长度 0.20 m
直径 2.80 m
跨度 9.00 m
形状 Box + pan
制造商 SPXS
平台类型 Starlink
阶段状态 In Orbit
所有者/国家 SPXS/US

Most Searched